Weather History for KLJF - March, 2014

Change the Weather History Date:

Monday, March 24, 2014

  Actual Average (WUND) Record (WUND)
Temperature  
Mean Temperature 24 °F -  
Max Temperature 30 °F - - (-1)
Min Temperature 17 °F - - (-1)
Degree Days  
Heating Degree Days 42    
Moisture  
Dew Point 15 °F    
Average Humidity 69    
Maximum Humidity 93    
Minimum Humidity 37    
Precipitation  
Precipitation 0.00 in - - ()
Sea Level Pressure  
Sea Level Pressure 30.21 in    
Wind  
Wind Speed 5 mph (WNW)    
Max Wind Speed 24 mph    
Max Gust Speed 36 mph    
Visibility 10 miles    
Events Snow    
Averages and records for this station are not official NWS values.
T = Trace of Precipitation, MM = Missing Value Source: NWS Daily Summary

Daily Weather History Graph

Daily Weather History Graph

Search for Another Location

Airport or City:

Trip Planner

Search our weather history database for the weather conditions in past years. The results will help you decide how hot, cold, wet, or windy it might be!

Date:

Astronomy

Mar. 24, 2014 Rise Set
Actual Time 7:13 AM CDT 7:35 PM CDT
Civil Twilight 6:44 AM CDT 8:05 PM CDT
Nautical Twilight 6:09 AM CDT 8:39 PM CDT
Astronomical Twilight 5:33 AM CDT 9:15 PM CDT
Moon 2:59 AM CDT (3/24) 12:47 PM CDT (3/24)
Length of Visible Light 13h 21m
Length of Day
12h 22m
Last Quarter, 43% of the Moon is Illuminated
Mar 24
Last Quarter
Mar 30
New
Apr 7
First Quarter
Apr 15
Full
Apr 22
Last Quarter

Hourly Weather History & Observations

Time (CDT) Temp. Windchill Dew Point Humidity Pressure Visibility Wind Dir Wind Speed Gust Speed Precip Events Conditions
12:12 AM 21.2 °F - 12.2 °F 68% 30.34 in 10.0 mi Calm Calm - N/A   Overcast
12:33 AM 21.2 °F - 12.2 °F 68% 30.34 in 10.0 mi Calm Calm - N/A   Overcast
12:53 AM 21.2 °F - 10.4 °F 63% 30.34 in 10.0 mi Calm Calm - N/A   Overcast
1:12 AM 21.2 °F - 10.4 °F 63% 30.34 in 10.0 mi Calm Calm - N/A   Overcast
1:33 AM 21.2 °F - 12.2 °F 68% 30.33 in 10.0 mi Calm Calm - N/A   Overcast
1:53 AM 21.2 °F - 12.2 °F 68% 30.33 in 10.0 mi Calm Calm - N/A   Overcast
2:12 AM 21.2 °F - 10.4 °F 63% 30.32 in 10.0 mi Calm Calm - N/A   Overcast
2:33 AM 21.2 °F - 12.2 °F 68% 30.31 in 10.0 mi Calm Calm - N/A   Overcast
2:52 AM 21.2 °F - 12.2 °F 68% 30.30 in 10.0 mi Calm Calm - N/A   Overcast
3:12 AM 21.2 °F - 12.2 °F 68% 30.29 in 10.0 mi Calm Calm - N/A   Mostly Cloudy
3:33 AM 19.4 °F - 12.2 °F 74% 30.28 in 10.0 mi Calm Calm - N/A   Scattered Clouds
3:53 AM 19.4 °F 14.3 °F 12.2 °F 74% 30.27 in 10.0 mi South 3.5 mph - N/A   Scattered Clouds
4:12 AM 19.4 °F - 12.2 °F 74% 30.27 in 10.0 mi Calm Calm - N/A   Clear
4:33 AM 19.4 °F - 12.2 °F 74% 30.26 in 10.0 mi Calm Calm - N/A   Clear
4:52 AM 17.6 °F - 12.2 °F 79% 30.27 in 10.0 mi Calm Calm - N/A   Clear
5:13 AM 17.6 °F - 12.2 °F 79% 30.27 in 10.0 mi Calm Calm - N/A   Mostly Cloudy
5:32 AM 19.4 °F - 15.8 °F 86% 30.27 in 10.0 mi Calm Calm - N/A   Overcast
5:52 AM 19.4 °F - 15.8 °F 86% 30.27 in 10.0 mi Calm Calm - N/A   Overcast
6:13 AM 17.6 °F - 15.8 °F 93% 30.27 in 10.0 mi Calm Calm - N/A   Mostly Cloudy
6:32 AM 17.6 °F - 14.0 °F 86% 30.27 in 10.0 mi Calm Calm - N/A   Mostly Cloudy
6:52 AM 17.6 °F - 15.8 °F 93% 30.27 in 10.0 mi Calm Calm - N/A   Overcast
7:13 AM 19.4 °F - 17.6 °F 93% 30.26 in 7.0 mi Calm Calm - N/A   Overcast
7:32 AM 19.4 °F - 17.6 °F 93% 30.26 in 7.0 mi Calm Calm - N/A Snow Light Snow
7:52 AM 19.4 °F - 17.6 °F 93% 30.25 in 7.0 mi Calm Calm - N/A   Overcast
8:13 AM 21.2 °F - 17.6 °F 86% 30.25 in 10.0 mi Calm Calm - N/A   Overcast
8:32 AM 21.2 °F - 17.6 °F 86% 30.24 in 10.0 mi Calm Calm - N/A   Mostly Cloudy
8:52 AM 23.0 °F - 17.6 °F 80% 30.23 in 10.0 mi Calm Calm - N/A   Scattered Clouds
9:13 AM 24.8 °F - 19.4 °F 80% 30.23 in 10.0 mi Calm Calm - N/A   Scattered Clouds
9:32 AM 26.6 °F 19.1 °F 21.2 °F 80% 30.23 in 10.0 mi WSW 6.9 mph - N/A   Mostly Cloudy
9:52 AM 26.6 °F 19.1 °F 24.8 °F 93% 30.23 in 5.0 mi WSW 6.9 mph - N/A Snow Light Snow
10:13 AM 26.6 °F 19.1 °F 24.8 °F 93% 30.23 in 3.0 mi West 6.9 mph - N/A Snow Light Snow
10:32 AM 28.4 °F 20.4 °F 24.8 °F 86% 30.22 in 7.0 mi West 8.1 mph - N/A   Overcast
10:52 AM 26.6 °F 18.2 °F 24.8 °F 93% 30.22 in 10.0 mi NW 8.1 mph - N/A   Overcast
11:13 AM 28.4 °F 18.5 °F 23.0 °F 80% 30.22 in 10.0 mi NW 11.5 mph - N/A   Mostly Cloudy
11:32 AM 28.4 °F 19.1 °F 21.2 °F 74% 30.21 in 10.0 mi NW 10.4 mph - N/A   Scattered Clouds
11:53 AM 30.2 °F 21.3 °F 21.2 °F 69% 30.22 in 10.0 mi NW 10.4 mph - N/A   Mostly Cloudy
12:13 PM 28.4 °F 21.2 °F 21.2 °F 74% 30.21 in 10.0 mi NW 6.9 mph 17.3 mph N/A   Overcast
12:32 PM 30.2 °F 19.8 °F 17.6 °F 60% 30.21 in 10.0 mi NW 13.8 mph 19.6 mph N/A   Mostly Cloudy
12:53 PM 30.2 °F 20.2 °F 15.8 °F 55% 30.21 in 10.0 mi NW 12.7 mph 18.4 mph N/A   Overcast
1:13 PM 30.2 °F 21.9 °F 15.8 °F 55% 30.20 in 10.0 mi NW 9.2 mph 17.3 mph N/A   Overcast
1:32 PM 30.2 °F 19.8 °F 15.8 °F 55% 30.19 in 10.0 mi WNW 13.8 mph 19.6 mph N/A   Overcast
1:53 PM 30.2 °F 21.3 °F 15.8 °F 55% 30.18 in 10.0 mi WNW 10.4 mph 17.3 mph N/A   Mostly Cloudy
2:12 PM 30.2 °F 21.3 °F 15.8 °F 55% 30.17 in 10.0 mi WNW 10.4 mph 17.3 mph N/A   Mostly Cloudy
2:33 PM 30.2 °F 19.8 °F 17.6 °F 60% 30.17 in 7.0 mi WNW 13.8 mph 21.9 mph N/A Snow Light Snow
2:53 PM 28.4 °F 16.6 °F 17.6 °F 64% 30.16 in 10.0 mi WNW 16.1 mph 25.3 mph N/A   Mostly Cloudy
3:12 PM 30.2 °F 18.9 °F 15.8 °F 55% 30.15 in 10.0 mi WNW 16.1 mph 24.2 mph N/A   Mostly Cloudy
3:33 PM 30.2 °F 18.5 °F 12.2 °F 47% 30.15 in 10.0 mi WNW 17.3 mph 26.5 mph N/A   Mostly Cloudy
3:53 PM 30.2 °F 18.9 °F 10.4 °F 44% 30.14 in 10.0 mi NW 16.1 mph 26.5 mph N/A   Mostly Cloudy
4:13 PM 30.2 °F 16.5 °F 6.8 °F 37% 30.15 in 10.0 mi WNW 24.2 mph 35.7 mph N/A   Scattered Clouds
4:33 PM 28.4 °F 15.1 °F 8.6 °F 43% 30.15 in 10.0 mi NW 20.7 mph 25.3 mph N/A   Scattered Clouds
4:52 PM 28.4 °F 17.5 °F 8.6 °F 43% 30.15 in 10.0 mi NW 13.8 mph 31.1 mph N/A   Scattered Clouds
5:13 PM 28.4 °F 17.0 °F 8.6 °F 43% 30.15 in 10.0 mi WNW 15.0 mph 29.9 mph N/A   Scattered Clouds
5:33 PM 28.4 °F 17.5 °F 12.2 °F 51% 30.15 in 10.0 mi NW 13.8 mph - N/A   Scattered Clouds
5:52 PM 28.4 °F 16.6 °F 10.4 °F 47% 30.14 in 10.0 mi NW 16.1 mph 20.7 mph N/A   Scattered Clouds
6:13 PM 28.4 °F 17.0 °F 12.2 °F 51% 30.14 in 10.0 mi NW 15.0 mph 24.2 mph N/A   Mostly Cloudy
6:33 PM 28.4 °F 18.0 °F 10.4 °F 47% 30.14 in 10.0 mi NW 12.7 mph 21.9 mph N/A   Mostly Cloudy
6:52 PM 28.4 °F 18.0 °F 10.4 °F 47% 30.14 in 10.0 mi NW 12.7 mph 24.2 mph N/A   Scattered Clouds
7:13 PM 26.6 °F 15.7 °F 10.4 °F 51% 30.13 in 10.0 mi NW 12.7 mph 18.4 mph N/A   Clear
7:32 PM 26.6 °F 15.2 °F 12.2 °F 55% 30.13 in 10.0 mi WNW 13.8 mph 18.4 mph N/A   Clear
7:53 PM 26.6 °F 19.1 °F 12.2 °F 55% 30.12 in 10.0 mi WNW 6.9 mph - N/A   Clear
8:13 PM 26.6 °F 19.1 °F 12.2 °F 55% 30.12 in 10.0 mi WNW 6.9 mph - N/A   Clear
8:32 PM 24.8 °F 16.9 °F 12.2 °F 59% 30.12 in 10.0 mi WNW 6.9 mph - N/A   Clear
8:53 PM 24.8 °F 17.9 °F 14.0 °F 64% 30.12 in 10.0 mi WNW 5.8 mph - N/A   Clear
9:13 PM 24.8 °F 14.6 °F 12.2 °F 59% 30.12 in 10.0 mi WNW 10.4 mph - N/A   Scattered Clouds
9:32 PM 24.8 °F 15.3 °F 15.8 °F 69% 30.12 in 10.0 mi WNW 9.2 mph 18.4 mph N/A   Mostly Cloudy
9:53 PM 26.6 °F 16.2 °F 17.6 °F 69% 30.13 in 10.0 mi WNW 11.5 mph - N/A   Overcast
10:13 PM 24.8 °F 12.9 °F 17.6 °F 74% 30.13 in 10.0 mi NW 13.8 mph 18.4 mph N/A   Overcast
10:32 PM 24.8 °F 14.0 °F 17.6 °F 74% 30.13 in 10.0 mi WNW 11.5 mph 18.4 mph N/A   Scattered Clouds
10:53 PM 24.8 °F 14.0 °F 15.8 °F 69% 30.13 in 10.0 mi WNW 11.5 mph 19.6 mph N/A   Scattered Clouds
11:12 PM 24.8 °F 13.4 °F 17.6 °F 74% 30.13 in 10.0 mi WNW 12.7 mph 17.3 mph N/A   Mostly Cloudy
11:33 PM 21.2 °F 8.3 °F 19.4 °F 93% 30.14 in - NW 13.8 mph 21.9 mph N/A   Unknown
11:53 PM 21.2 °F 9.5 °F 17.6 °F 86% 30.15 in 10.0 mi NNW 11.5 mph 18.4 mph N/A   Scattered Clouds